Regional Weather Roundup
Issued by NWS

Home | Current Version | Previous Version | Graphics & Text | Print | Product List | Glossary On
Versions: 1 2 3 4 5 6 7 8 9 10 11 12 13 14 15 16 17 18 19 20 21 22 23 24 25 26 27 28 29 30 31 32 33 34 35 36 37 38 39 40 41 42 43 44 45 46 47 48 49 50
000
ASUS43 KFSD 230710
RWRSD

WEATHER ROUNDUP FOR SOUTH DAKOTA
NATIONAL WEATHER SERVICE SIOUX FALLS SD
100 AM CST TUE JAN 23 2018

NOTE: "FAIR" INDICATES FEW OR NO CLOUDS BELOW 12,000 FEET WITH NO
SIGNIFICANT WEATHER AND/OR OBSTRUCTIONS TO VISIBILITY.


SDZ001>005-009-010-012>017-230800-
NORTHWEST AND NORTH CENTRAL SOUTH DAKOTA

CITY           SKY/WX    TMP DP  RH WIND       PRES   REMARKS
BUFFALO          N/A     29  22  75 W8        29.97S WCI  21
FAITH            N/A     27  22  81 NW13      30.02S WCI  16
MOBRIDGE       FOG       22  19  89 NW5       30.02S VSB 1/2 WCI  16
$$

SDZ012>016-024>037-041>051-057-063-072>074-230800-
SOUTHWEST AND SOUTH CENTRAL SOUTH DAKOTA

CITY           SKY/WX    TMP DP  RH WIND       PRES   REMARKS
RAPID CTY ARPT CLOUDY    34  23  64 NW16      30.05R WCI  24
PIERRE         FOG       22  21  96 NW6       30.05S VSB 3/4 WCI  14
CUSTER         CLOUDY    26  16  65 W7        30.01R WCI  18
ELLSWORTH AFB  CLOUDY    35  25  67 NW22G29   30.04R WCI  23
PHILIP         PTCLDY    19  17  92 W9        30.06R WCI   8
PINE RIDGE     CLOUDY    16  12  84 W5        30.08R WCI   9
SPEARFISH      LGT SNOW  30  28  93 W6        30.08S WCI  24
WINNER         FOG       22  20  92 W8        30.05R VSB 1/4 WCI  12
$$

SDZ004>011-016>023-039-040-230800-
NORTHEAST SOUTH DAKOTA

CITY           SKY/WX    TMP DP  RH WIND       PRES   REMARKS
ABERDEEN       CLOUDY    21  21 100 N9        30.05F WCI  11
WATERTOWN      CLOUDY    20  19  96 N16G23    29.97R WCI   6
BROOKINGS      CLOUDY    21  19  92 MISG        N/A
SISSETON         N/A     22  19  89 N17       30.01R WCI   8
$$

SDZ017-020-022-023-036>040-048>070-230800-
SOUTHEAST SOUTH DAKOTA

CITY           SKY/WX    TMP DP  RH WIND       PRES   REMARKS
SIOUX FALLS    CLOUDY    23  21  92 N18       29.96R WCI   9
HURON          CLOUDY    20  20 100 N16       30.05R WCI   6
CHAMBERLAIN    CLOUDY    23  23 100 W7        30.06S WCI  15
MITCHELL       CLOUDY    22  21  96 NW18      30.05S WCI   7
YANKTON        MIX PCPN  23  21  92 NW26G33   29.99S FOG     WCI   6
$$

ABBREVIATIONS USED IN REMARKS
   TC - TEMPERATURE IN CELSIUS
  WCI - WIND CHILL INDEX
   HX - HEAT INDEX
  VSB - VISIBILITY





USA.gov is the U.S. government's official web portal to all federal, state and local government web resources and services.